This demonstration page uses our WeatherBlox Daily Observations layout. Learn more.

Left ArrowRight Arrow

36.17497, -115.13722

Hourly Observations for September 24, 2021

Temp ( °F °C ) Dew Point ( °F °C ) Humidity (%) Winds ( mph kmh ) Pressure ( in mb ) Visibility ( mi km ) Precip ( " mm )
12:53 am 00:53 Clear 80 26.7 40 4.4 24 24 NNW 8 13 29.89 1012 10 16 N/A
1:53 am 01:53 Clear 83 28.3 44 6.7 25 25 E 5 7 29.90 1012 10 16 N/A
2:53 am 02:53 Clear 80 26.7 39 3.9 23 23 W 6 9 29.92 1013 10 16 N/A
3:53 am 03:53 Clear 79 26.1 37 2.8 22 22 ESE 5 7 29.93 1013 10 16 N/A
4:53 am 04:53 Clear 76 24.4 37 2.8 24 24 N N/A 29.94 1014 10 16 N/A
5:53 am 05:53 Clear 72 22.2 37 2.8 28 28 NW 5 7 29.95 1014 10 16 N/A
6:53 am 06:53 Sunny 72 22.2 41 5 33 33 W 3 6 29.97 1015 10 16 N/A
7:53 am 07:53 Sunny 76 24.4 39 3.9 26 26 NNW 3 6 29.98 1015 10 16 N/A
8:53 am 08:53 Sunny 82 27.8 34 1.1 18 18 NW 9 15 30.00 1016 10 16 N/A
9:53 am 09:53 Sunny 87 30.6 33 0.6 14 14 N 8 13 29.99 1016 10 16 N/A
10:53 am 10:53 Sunny 88 31.1 32 undefined 13 13 N 8 13 29.99 1016 10 16 N/A
11:53 am 11:53 Sunny 91 32.8 32 undefined 12 12 NNE 6 9 29.98 1015 10 16 N/A
12:53 pm 12:53 Sunny 91 32.8 33 0.6 13 13 undefined N/A 29.96 1015 10 16 N/A
1:53 pm 13:53 Sunny 93 33.9 35 1.7 13 13 VRB 3 6 29.93 1013 10 16 N/A
2:53 pm 14:53 Sunny 93 33.9 39 3.9 15 15 N N/A 29.90 1013 10 16 N/A
3:53 pm 15:53 Sunny 96 35.6 36 2.2 12 12 N N/A 29.88 1012 10 16 N/A
4:53 pm 16:53 Sunny 95 35 35 1.7 12 12 VRB 3 6 29.88 1012 10 16 N/A
5:53 pm 17:53 Sunny 94 34.4 34 1.1 12 12 N N/A 29.88 1012 10 16 N/A
6:53 pm 18:53 Clear 93 33.9 34 1.1 12 12 W 5 7 29.88 1012 10 16 N/A
7:53 pm 19:53 Clear 88 31.1 38 3.3 17 17 N N/A 29.89 1012 10 16 N/A
8:53 pm 20:53 Clear 84 28.9 39 3.9 20 20 NW 6 9 29.91 1013 10 16 N/A
9:53 pm 21:53 Clear 84 28.9 39 3.9 20 20 SW 3 6 29.91 1013 10 16 N/A
10:53 pm 22:53 Clear 80 26.7 38 3.3 22 22 N N/A 29.93 1013 10 16 N/A
11:53 pm 23:53 Clear 78 25.6 37 2.8 23 23 WNW 5 7 29.92 1013 10 16 N/A

Powered by AerisWeather